,,Stat6,,Stat2,,Stat8,,Stat9,,Stat10,,Wind1,,Wind1,
time,status,PA1M_AVG,status,PR1M_SUM,status,RH1M_AVG,status,SR1M_AVG,status,TA1M_AVG,status,W1dAve1m,status,W1sAve1m,
2004-09-30, 00:00:00,VALID,920.169,VALID,0,VALID,100,VALID,-0.118866,VALID,17.9093,VALID,120,VALID,1.01563,
2004-09-30, 00:01:00,VALID,920.137,VALID,0,VALID,100,VALID,-0.101885,VALID,17.9093,VALID,129,VALID,1.29277,
2004-09-30, 00:02:00,VALID,920.102,VALID,0,VALID,100,VALID,-0.0849042,VALID,17.912,VALID,135,VALID,1.60899,
2004-09-30, 00:03:00,VALID,920.084,VALID,0,VALID,100,VALID,-0.101885,VALID,17.9187,VALID,134,VALID,1.29942,
2004-09-30, 00:04:00,VALID,920.063,VALID,0,VALID,100,VALID,-0.101885,VALID,17.9051,VALID,136,VALID,1.55984,
2004-09-30, 00:05:00,VALID,920.018,VALID,0,VALID,100,VALID,-0.0849042,VALID,17.9123,VALID,130,VALID,1.43906,
2004-09-30, 00:06:00,VALID,919.988,VALID,0,VALID,100,VALID,-0.0679233,VALID,17.8989,VALID,136,VALID,1.23347,
2004-09-30, 00:07:00,VALID,919.97,VALID,0,VALID,100,VALID,0,VALID,17.9114,VALID,127,VALID,1.06715,
2004-09-30, 00:08:00,VALID,919.932,VALID,0,VALID,100,VALID,0,VALID,17.895,VALID,130,VALID,1.16016,
2004-09-30, 00:09:00,VALID,919.905,VALID,0,VALID,100,VALID,-0.0339617,VALID,17.9012,VALID,129,VALID,0.75799,
2004-09-30, 00:10:00,VALID,919.876,VALID,0,VALID,100,VALID,-0.0339617,VALID,17.9051,VALID,117,VALID,0.716025,
2004-09-30, 00:11:00,VALID,919.857,VALID,0,VALID,100,VALID,0,VALID,17.8853,VALID,110,VALID,0.598785,
2004-09-30, 00:12:00,VALID,919.828,VALID,0,VALID,100,VALID,0,VALID,17.892,VALID,117,VALID,0.753516,
2004-09-30, 00:13:00,VALID,919.81,VALID,0,VALID,100,VALID,0,VALID,17.8954,VALID,123,VALID,0.974132,
2004-09-30, 00:14:00,VALID,919.787,VALID,0,VALID,100,VALID,-0.0169808,VALID,17.9051,VALID,130,VALID,0.93285,
2004-09-30, 00:15:00,VALID,919.758,VALID,0,VALID,100,VALID,-0.0339617,VALID,17.8915,VALID,136,VALID,0.705256,
2004-09-30, 00:16:00,VALID,919.749,VALID,0,VALID,100,VALID,-0.0169808,VALID,17.9086,VALID,139,VALID,0.573103,
2004-09-30, 00:17:00,VALID,919.741,VALID,0,VALID,100,VALID,0,VALID,17.9081,VALID,167,VALID,0.708789,
2004-09-30, 00:18:00,VALID,919.74,VALID,0,VALID,100,VALID,-0.0339617,VALID,17.895,VALID,174,VALID,0.392628,
2004-09-30, 00:19:00,VALID,919.738,VALID,0,VALID,100,VALID,-0.0509425,VALID,17.9084,VALID,157,VALID,0.407292,
2004-09-30, 00:20:00,VALID,919.723,VALID,0,VALID,100,VALID,-0.0509425,VALID,17.8948,VALID,121,VALID,0.790179,
2004-09-30, 00:21:00,VALID,919.717,VALID,0,VALID,100,VALID,-0.0169808,VALID,17.918,VALID,129,VALID,0.46875,
2004-09-30, 00:22:00,VALID,919.714,VALID,0,VALID,100,VALID,-0.118866,VALID,17.9056,VALID,114,VALID,0.733073,
2004-09-30, 00:23:00,VALID,919.711,VALID,0,VALID,100,VALID,-0.101885,VALID,17.9224,VALID,88,VALID,0.491667,
2004-09-30, 00:24:00,VALID,919.692,VALID,0,VALID,100,VALID,-0.169808,VALID,17.9422,VALID,74,VALID,0.731771,
2004-09-30, 00:25:00,VALID,919.697,VALID,0,VALID,100,VALID,-0.152827,VALID,17.9289,VALID,71,VALID,0.982558,
2004-09-30, 00:26:00,VALID,919.688,VALID,0,VALID,99.9954,VALID,-0.101885,VALID,17.9321,VALID,76,VALID,0.859933,
2004-09-30, 00:27:00,VALID,919.69,VALID,0,VALID,99.9825,VALID,-0.169808,VALID,17.9226,VALID,73,VALID,0.86319,
2004-09-30, 00:28:00,VALID,919.692,VALID,0,VALID,99.9189,VALID,-0.135847,VALID,17.9194,VALID,80,VALID,0.900981,
2004-09-30, 00:29:00,VALID,919.663,VALID,0,VALID,99.8795,VALID,-0.118866,VALID,17.9129,VALID,74,VALID,0.929874,
2004-09-30, 00:30:00,VALID,919.644,VALID,0,VALID,99.8527,VALID,-0.152827,VALID,17.9028,VALID,96,VALID,1.3155,
2004-09-30, 00:31:00,VALID,919.625,VALID,0,VALID,99.8667,VALID,-0.135847,VALID,17.8903,VALID,107,VALID,1.1804,
2004-09-30, 00:32:00,VALID,919.593,VALID,0,VALID,99.9151,VALID,-0.152827,VALID,17.877,VALID,111,VALID,0.978423,
2004-09-30, 00:33:00,VALID,919.566,VALID,0,VALID,99.9631,VALID,-0.152827,VALID,17.8675,VALID,106,VALID,0.953506,
2004-09-30, 00:34:00,VALID,919.546,VALID,0,VALID,99.9954,VALID,-0.101885,VALID,17.8578,VALID,107,VALID,0.891513,
2004-09-30, 00:35:00,VALID,919.515,VALID,0,VALID,100,VALID,-0.152827,VALID,17.855,VALID,110,VALID,0.970238,
2004-09-30, 00:36:00,VALID,919.491,VALID,0,VALID,100,VALID,-0.101885,VALID,17.8447,VALID,119,VALID,0.735305,
2004-09-30, 00:37:00,VALID,919.49,VALID,0,VALID,100,VALID,-0.0339617,VALID,17.8334,VALID,122,VALID,1.07695,
2004-09-30, 00:38:00,VALID,919.484,VALID,0,VALID,100,VALID,0,VALID,17.8334,VALID,123,VALID,1.02326,
2004-09-30, 00:39:00,VALID,919.492,VALID,0,VALID,100,VALID,0,VALID,17.8401,VALID,135,VALID,0.888281,
2004-09-30, 00:40:00,VALID,919.494,VALID,0,VALID,100,VALID,0,VALID,17.847,VALID,135,VALID,0.944041,
2004-09-30, 00:41:00,VALID,919.495,VALID,0,VALID,100,VALID,-0.0169808,VALID,17.8403,VALID,137,VALID,0.728561,
2004-09-30, 00:42:00,VALID,919.472,VALID,0,VALID,100,VALID,0,VALID,17.8369,VALID,136,VALID,0.691051,
2004-09-30, 00:43:00,VALID,919.456,VALID,0,VALID,100,VALID,-0.0339617,VALID,17.8371,VALID,120,VALID,0.599382,
2004-09-30, 00:44:00,VALID,919.413,VALID,0,VALID,100,VALID,0,VALID,17.8334,VALID,85,VALID,0.567454,
2004-09-30, 00:45:00,VALID,919.372,VALID,0,VALID,100,VALID,0,VALID,17.8466,VALID,77,VALID,0.65346,
2004-09-30, 00:46:00,VALID,919.362,VALID,0,VALID,100,VALID,-0.0339617,VALID,17.8406,VALID,77,VALID,0.391352,
2004-09-30, 00:47:00,VALID,919.364,VALID,0,VALID,100,VALID,-0.0509425,VALID,17.8311,VALID,77,VALID,0.0946584,
2004-09-30, 00:48:00,VALID,919.374,VALID,0,VALID,100,VALID,-0.0339617,VALID,17.8408,VALID,77,VALID,0.0786701,
2004-09-30, 00:49:00,VALID,919.351,VALID,0,VALID,100,VALID,-0.0849042,VALID,17.8276,VALID,44,VALID,0.303925,
2004-09-30, 00:50:00,VALID,919.345,VALID,0,VALID,100,VALID,-0.0339617,VALID,17.8431,VALID,42,VALID,0.665104,
2004-09-30, 00:51:00,VALID,919.325,VALID,0,VALID,100,VALID,-0.0169808,VALID,17.8567,VALID,40,VALID,0.814276,
2004-09-30, 00:52:00,VALID,919.307,VALID,0,VALID,100,VALID,-0.0169808,VALID,17.847,VALID,50,VALID,0.644886,
2004-09-30, 00:53:00,VALID,919.3,VALID,0,VALID,100,VALID,-0.0339617,VALID,17.8373,VALID,67,VALID,0.676711,
2004-09-30, 00:54:00,VALID,919.301,VALID,0,VALID,100,VALID,-0.0339617,VALID,17.821,VALID,92,VALID,0.478609,
2004-09-30, 00:55:00,VALID,919.276,VALID,0,VALID,100,VALID,-0.0169808,VALID,17.8111,VALID,104,VALID,0.533346,
2004-09-30, 00:56:00,VALID,919.276,VALID,0,VALID,100,VALID,-0.0509425,VALID,17.8115,VALID,128,VALID,0.981213,
2004-09-30, 00:57:00,VALID,919.272,VALID,0,VALID,100,VALID,-0.0339617,VALID,17.8143,VALID,128,VALID,0.884896,
2004-09-30, 00:58:00,VALID,919.265,VALID,0,VALID,100,VALID,-0.0169808,VALID,17.8212,VALID,121,VALID,1.43108,
2004-09-30, 00:59:00,VALID,919.264,VALID,0,VALID,100,VALID,-0.0339617,VALID,17.8309,VALID,107,VALID,1.28609,
2004-09-30, 01:00:00,VALID,919.28,VALID,0,VALID,100,VALID,-0.0169808,VALID,17.8406,VALID,75,VALID,0.934375,
2004-09-30, 01:01:00,VALID,919.298,VALID,0,VALID,100,VALID,-0.0509425,VALID,17.8406,VALID,81,VALID,0.998402,
2004-09-30, 01:02:00,VALID,919.316,VALID,0,VALID,100,VALID,-0.0509425,VALID,17.8406,VALID,102,VALID,1.03316,
2004-09-30, 01:03:00,VALID,919.323,VALID,0,VALID,100,VALID,-0.0679233,VALID,17.8535,VALID,112,VALID,1.12918,
2004-09-30, 01:04:00,VALID,919.344,VALID,0,VALID,100,VALID,-0.0339617,VALID,17.85,VALID,121,VALID,0.853198,
2004-09-30, 01:05:00,VALID,919.354,VALID,0,VALID,100,VALID,-0.0339617,VALID,17.8565,VALID,127,VALID,1.04985,
2004-09-30, 01:06:00,VALID,919.349,VALID,0,VALID,100,VALID,-0.0169808,VALID,17.8595,VALID,125,VALID,1.24151,
2004-09-30, 01:07:00,VALID,919.329,VALID,0,VALID,100,VALID,-0.0339617,VALID,17.85,VALID,118,VALID,1.26207,
2004-09-30, 01:08:00,VALID,919.281,VALID,0,VALID,100,VALID,-0.0679233,VALID,17.8438,VALID,100,VALID,1.02548,
2004-09-30, 01:09:00,VALID,919.254,VALID,0,VALID,100,VALID,-0.0679233,VALID,17.8401,VALID,58,VALID,1.06548,
2004-09-30, 01:10:00,VALID,919.242,VALID,0,VALID,100,VALID,-0.0509425,VALID,17.8496,VALID,50,VALID,1.00093,
2004-09-30, 01:11:00,VALID,919.235,VALID,0,VALID,100,VALID,-0.0509425,VALID,17.8463,VALID,85,VALID,0.931771,
2004-09-30, 01:12:00,VALID,919.21,VALID,0,VALID,100,VALID,-0.0679233,VALID,17.8438,VALID,116,VALID,0.816602,
2004-09-30, 01:13:00,VALID,919.196,VALID,0,VALID,100,VALID,-0.0679233,VALID,17.8403,VALID,118,VALID,0.99907,
2004-09-30, 01:14:00,VALID,919.18,VALID,0,VALID,100,VALID,-0.0679233,VALID,17.8401,VALID,109,VALID,1.35039,
2004-09-30, 01:15:00,VALID,919.163,VALID,0,VALID,100,VALID,-0.0339617,VALID,17.8758,VALID,113,VALID,1.29074,
2004-09-30, 01:16:00,VALID,919.154,VALID,0,VALID,99.8273,VALID,-0.0169808,VALID,17.898,VALID,110,VALID,1.50955,
2004-09-30, 01:17:00,VALID,919.136,VALID,0,VALID,99.4268,VALID,-0.0339617,VALID,17.9731,VALID,99,VALID,1.37351,
2004-09-30, 01:18:00,VALID,919.127,VALID,0,VALID,98.9817,VALID,-0.0509425,VALID,18.0239,VALID,96,VALID,1.23256,
2004-09-30, 01:19:00,VALID,919.111,VALID,0,VALID,98.6867,VALID,-0.0509425,VALID,18.0661,VALID,124,VALID,1.29634,
2004-09-30, 01:20:00,VALID,919.107,VALID,0,VALID,98.6422,VALID,-0.0509425,VALID,18.1044,VALID,131,VALID,1.23383,
2004-09-30, 01:21:00,VALID,919.087,VALID,0,VALID,98.5646,VALID,-0.0339617,VALID,18.1044,VALID,134,VALID,1.32412,
2004-09-30, 01:22:00,VALID,919.067,VALID,0,VALID,98.5557,VALID,-0.0169808,VALID,18.105,VALID,133,VALID,0.973704,
2004-09-30, 01:23:00,VALID,919.054,VALID,0,VALID,98.6066,VALID,-0.0509425,VALID,18.0882,VALID,130,VALID,1.13281,
2004-09-30, 01:24:00,VALID,919.032,VALID,0,VALID,98.7287,VALID,-0.0169808,VALID,18.079,VALID,130,VALID,0.934295,
2004-09-30, 01:25:00,VALID,919.018,VALID,0,VALID,98.8088,VALID,0,VALID,18.079,VALID,131,VALID,0.950284,
2004-09-30, 01:26:00,VALID,918.984,VALID,0,VALID,98.9054,VALID,-0.0169808,VALID,18.0631,VALID,125,VALID,0.895349,
2004-09-30, 01:27:00,VALID,918.969,VALID,0,VALID,98.9741,VALID,0,VALID,18.0405,VALID,120,VALID,1.16352,
2004-09-30, 01:28:00,VALID,918.943,VALID,0,VALID,99.0987,VALID,-0.0169808,VALID,18.0211,VALID,123,VALID,1.12202,
2004-09-30, 01:29:00,VALID,918.917,VALID,0,VALID,99.1572,VALID,0,VALID,18.008,VALID,103,VALID,1.15134,
2004-09-30, 01:30:00,VALID,918.917,VALID,0,VALID,99.1623,VALID,-0.0339617,VALID,17.9983,VALID,104,VALID,0.492365,
2004-09-30, 01:31:00,VALID,918.906,VALID,0,VALID,99.1941,VALID,-0.0169808,VALID,17.9983,VALID,119,VALID,0.608259,
2004-09-30, 01:32:00,VALID,918.892,VALID,0,VALID,99.3149,VALID,-0.0509425,VALID,18.0114,VALID,126,VALID,0.801962,
2004-09-30, 01:33:00,VALID,918.872,VALID,0,VALID,99.3517,VALID,-0.0509425,VALID,18.0144,VALID,119,VALID,0.859738,
2004-09-30, 01:34:00,VALID,918.878,VALID,0,VALID,99.3136,VALID,0,VALID,18.0177,VALID,117,VALID,0.723837,
2004-09-30, 01:35:00,VALID,918.873,VALID,0,VALID,99.1979,VALID,-0.0509425,VALID,18.0008,VALID,118,VALID,0.631963,
2004-09-30, 01:36:00,VALID,918.844,VALID,0,VALID,99.1445,VALID,-0.0169808,VALID,18.014,VALID,122,VALID,0.710243,
2004-09-30, 01:37:00,VALID,918.815,VALID,0,VALID,99.1165,VALID,-0.0339617,VALID,18.0403,VALID,117,VALID,0.496094,
2004-09-30, 01:38:00,VALID,918.803,VALID,0,VALID,98.9359,VALID,-0.0339617,VALID,18.0439,VALID,111,VALID,0.705915,
2004-09-30, 01:39:00,VALID,918.785,VALID,0,VALID,98.8278,VALID,-0.0679233,VALID,18.0534,VALID,112,VALID,0.59266,
2004-09-30, 01:40:00,VALID,918.766,VALID,0,VALID,98.9016,VALID,-0.0169808,VALID,18.0822,VALID,59,VALID,0.987464,
2004-09-30, 01:41:00,VALID,918.783,VALID,0,VALID,98.8367,VALID,-0.0339617,VALID,18.1016,VALID,51,VALID,1.10361,
2004-09-30, 01:42:00,VALID,918.762,VALID,0,VALID,98.6892,VALID,-0.0169808,VALID,18.0882,VALID,46,VALID,0.762355,
2004-09-30, 01:43:00,VALID,918.758,VALID,0,VALID,98.5633,VALID,0,VALID,18.1177,VALID,72,VALID,0.257622,
2004-09-30, 01:44:00,VALID,918.711,VALID,0,VALID,98.262,VALID,0,VALID,18.108,VALID,163,VALID,0.799423,
2004-09-30, 01:45:00,VALID,918.64,VALID,0,VALID,98.0547,VALID,-0.0169808,VALID,18.1201,VALID,137,VALID,1.30646,
2004-09-30, 01:46:00,VALID,918.604,VALID,0,VALID,97.6656,VALID,-0.0169808,VALID,18.1463,VALID,120,VALID,1.36604,
2004-09-30, 01:47:00,VALID,918.601,VALID,0,VALID,97.2205,VALID,-0.0679233,VALID,18.1952,VALID,45,VALID,0.996652,
2004-09-30, 01:48:00,VALID,918.578,VALID,0,VALID,97.4939,VALID,0,VALID,18.2536,VALID,12,VALID,0.464674,
2004-09-30, 01:49:00,VALID,918.561,VALID,0,VALID,97.602,VALID,-0.0679233,VALID,18.2699,VALID,15,VALID,0.00454215,
2004-09-30, 01:50:00,VALID,918.534,VALID,0,VALID,97.41,VALID,-0.0339617,VALID,18.2305,VALID,15,VALID,1.03579,
2004-09-30, 01:51:00,VALID,918.543,VALID,0,VALID,97.41,VALID,-0.0509425,VALID,18.2146,VALID,360,VALID,0.756324,
2004-09-30, 01:52:00,VALID,918.545,VALID,0,VALID,97.3057,VALID,0.0509425,VALID,18.2104,VALID,349,VALID,0.538681,
2004-09-30, 01:53:00,VALID,918.542,VALID,0,VALID,96.9789,VALID,0.0169808,VALID,18.1842,VALID,315,VALID,0.566034,
2004-09-30, 01:54:00,VALID,918.539,VALID,0,VALID,96.9408,VALID,0.0679233,VALID,18.2098,VALID,357,VALID,0.786966,
2004-09-30, 01:55:00,VALID,918.552,VALID,0,VALID,97.129,VALID,0.0849042,VALID,18.2194,VALID,15,VALID,0.793229,
2004-09-30, 01:56:00,VALID,918.565,VALID,0,VALID,97.3121,VALID,0.0339617,VALID,18.2033,VALID,15,VALID,0.0774148,
2004-09-30, 01:57:00,VALID,918.581,VALID,0,VALID,97.5194,VALID,0.0509425,VALID,18.2035,VALID,15,VALID,0,
2004-09-30, 01:58:00,VALID,918.566,VALID,0,VALID,97.5931,VALID,0.0509425,VALID,18.1938,VALID,25,VALID,0.117759,
2004-09-30, 01:59:00,VALID,918.514,VALID,0,VALID,97.6796,VALID,0.0679233,VALID,18.1779,VALID,66,VALID,1.11179,
2004-09-30, 02:00:00,VALID,918.56,VALID,0,VALID,97.6363,VALID,0.0679233,VALID,18.1712,VALID,68,VALID,0.078497,
2004-09-30, 02:01:00,VALID,918.57,VALID,0,VALID,97.7749,VALID,0.0509425,VALID,18.1456,VALID,39,VALID,0.498285,
2004-09-30, 02:02:00,VALID,918.587,VALID,0,VALID,97.8996,VALID,0.0849042,VALID,18.1327,VALID,35,VALID,0.816493,
2004-09-30, 02:03:00,VALID,918.613,VALID,0,VALID,98.0026,VALID,0.0509425,VALID,18.1198,VALID,36,VALID,0.180469,
2004-09-30, 02:04:00,VALID,918.626,VALID,0,VALID,98.0979,VALID,0.0339617,VALID,18.1138,VALID,28,VALID,0,
2004-09-30, 02:05:00,VALID,918.615,VALID,0,VALID,98.1094,VALID,0.0169808,VALID,18.0972,VALID,28,VALID,0.199855,
2004-09-30, 02:06:00,VALID,918.582,VALID,0,VALID,97.9962,VALID,0.0509425,VALID,18.0875,VALID,28,VALID,0.916602,
2004-09-30, 02:07:00,VALID,918.544,VALID,0,VALID,97.8398,VALID,0.101885,VALID,18.0843,VALID,33,VALID,1.379,
2004-09-30, 02:08:00,VALID,918.54,VALID,0,VALID,97.7254,VALID,0.0849042,VALID,18.1035,VALID,36,VALID,1.00484,
2004-09-30, 02:09:00,VALID,918.547,VALID,0,VALID,97.6592,VALID,0.101885,VALID,18.1166,VALID,37,VALID,0.149609,
2004-09-30, 02:10:00,VALID,918.538,VALID,0,VALID,97.3324,VALID,0.101885,VALID,18.094,VALID,5,VALID,0.0117188,
2004-09-30, 02:11:00,VALID,918.558,VALID,0,VALID,97.0361,VALID,0.101885,VALID,18.1005,VALID,6,VALID,0.077381,
2004-09-30, 02:12:00,VALID,918.537,VALID,0,VALID,97.1391,VALID,0.0509425,VALID,18.1323,VALID,28,VALID,1.00484,
2004-09-30, 02:13:00,VALID,918.553,VALID,0,VALID,97.0565,VALID,0.0679233,VALID,18.1521,VALID,55,VALID,0.326562,
2004-09-30, 02:14:00,VALID,918.547,VALID,0,VALID,96.7793,VALID,0.0849042,VALID,18.1459,VALID,64,VALID,0.0480183,
2004-09-30, 02:15:00,VALID,918.55,VALID,0,VALID,96.9853,VALID,0.101885,VALID,18.1452,VALID,64,VALID,0.146875,
2004-09-30, 02:16:00,VALID,918.555,VALID,0,VALID,97.1786,VALID,0.0849042,VALID,18.1551,VALID,40,VALID,0.485938,
2004-09-30, 02:17:00,VALID,918.54,VALID,0,VALID,97.2193,VALID,0.101885,VALID,18.136,VALID,38,VALID,0.456101,
2004-09-30, 02:18:00,VALID,918.527,VALID,0,VALID,97.4291,VALID,0.101885,VALID,18.1231,VALID,15,VALID,0.845052,
2004-09-30, 02:19:00,VALID,918.494,VALID,0,VALID,97.5613,VALID,0.101885,VALID,18.0873,VALID,14,VALID,0.80785,
2004-09-30, 02:20:00,VALID,918.477,VALID,0,VALID,97.6351,VALID,0.0849042,VALID,18.0617,VALID,17,VALID,0.212713,
2004-09-30, 02:21:00,VALID,918.467,VALID,0,VALID,97.7241,VALID,0.0849042,VALID,18.049,VALID,27,VALID,0.333651,
2004-09-30, 02:22:00,VALID,918.463,VALID,0,VALID,97.9364,VALID,0,VALID,18.0472,VALID,27,VALID,0.345084,
2004-09-30, 02:23:00,VALID,918.435,VALID,0,VALID,97.8042,VALID,0,VALID,18.0174,VALID,27,VALID,0.544389,
2004-09-30, 02:24:00,VALID,918.441,VALID,0,VALID,97.9123,VALID,0,VALID,18.0147,VALID,21,VALID,0.751635,
2004-09-30, 02:25:00,VALID,918.416,VALID,0,VALID,98.1641,VALID,0,VALID,18.0082,VALID,23,VALID,0.957508,
2004-09-30, 02:26:00,VALID,918.432,VALID,0,VALID,98.351,VALID,0,VALID,17.9886,VALID,19,VALID,0.479688,
2004-09-30, 02:27:00,VALID,918.415,VALID,0,VALID,98.1742,VALID,0,VALID,17.9662,VALID,253,VALID,0.142773,
2004-09-30, 02:28:00,VALID,918.412,VALID,0,VALID,96.7818,VALID,0,VALID,17.9397,VALID,340,VALID,0.845312,
2004-09-30, 02:29:00,VALID,918.402,VALID,0,VALID,95.4772,VALID,0,VALID,18.0753,VALID,18,VALID,0.939174,
2004-09-30, 02:30:00,VALID,918.402,VALID,0,VALID,95.4721,VALID,0,VALID,18.1793,VALID,304,VALID,0.207317,
2004-09-30, 02:31:00,VALID,918.379,VALID,0,VALID,95.3055,VALID,0,VALID,18.1825,VALID,286,VALID,0,
2004-09-30, 02:32:00,VALID,918.348,VALID,0,VALID,95.4377,VALID,-0.0169808,VALID,18.1798,VALID,334,VALID,0.166722,
2004-09-30, 02:33:00,VALID,918.327,VALID,0,VALID,94.8172,VALID,0,VALID,18.15,VALID,1,VALID,0.736037,
2004-09-30, 02:34:00,VALID,918.313,VALID,0,VALID,94.4967,VALID,0,VALID,18.1498,VALID,18,VALID,0.782366,
2004-09-30, 02:35:00,VALID,918.311,VALID,0,VALID,94.9736,VALID,-0.0169808,VALID,18.1726,VALID,29,VALID,0.494606,
2004-09-30, 02:36:00,VALID,918.297,VALID,0,VALID,94.9952,VALID,-0.0339617,VALID,18.1565,VALID,21,VALID,0.795313,
2004-09-30, 02:37:00,VALID,918.291,VALID,0,VALID,94.8375,VALID,-0.0339617,VALID,18.1468,VALID,22,VALID,1.31934,
2004-09-30, 02:38:00,VALID,918.279,VALID,0,VALID,94.9711,VALID,0,VALID,18.1565,VALID,23,VALID,1.07086,
2004-09-30, 02:39:00,VALID,918.284,VALID,0,VALID,95.1631,VALID,-0.0169808,VALID,18.1403,VALID,7,VALID,0.98971,
2004-09-30, 02:40:00,VALID,918.292,VALID,0,VALID,94.7638,VALID,0,VALID,18.1339,VALID,354,VALID,1.04535,
2004-09-30, 02:41:00,VALID,918.302,VALID,0,VALID,94.7473,VALID,0,VALID,18.1694,VALID,352,VALID,0.692882,
2004-09-30, 02:42:00,VALID,918.309,VALID,0,VALID,94.8935,VALID,0,VALID,18.1692,VALID,340,VALID,0.549293,
2004-09-30, 02:43:00,VALID,918.309,VALID,0,VALID,94.9978,VALID,0,VALID,18.1724,VALID,337,VALID,0.497024,
2004-09-30, 02:44:00,VALID,918.274,VALID,0,VALID,94.5336,VALID,0,VALID,18.1728,VALID,352,VALID,0.684048,
2004-09-30, 02:45:00,VALID,918.271,VALID,0,VALID,94.9304,VALID,0,VALID,18.2176,VALID,6,VALID,1.16388,
2004-09-30, 02:46:00,VALID,918.285,VALID,0,VALID,94.8719,VALID,0,VALID,18.2178,VALID,2,VALID,1.20703,
2004-09-30, 02:47:00,VALID,918.258,VALID,0,VALID,94.423,VALID,0,VALID,18.2176,VALID,4,VALID,1.17111,
2004-09-30, 02:48:00,VALID,918.25,VALID,0,VALID,94.9685,VALID,0,VALID,18.2404,VALID,16,VALID,1.24396,
2004-09-30, 02:49:00,VALID,918.211,VALID,0,VALID,94.8172,VALID,0,VALID,18.2116,VALID,16,VALID,1.7849,
2004-09-30, 02:50:00,VALID,918.21,VALID,0,VALID,94.3124,VALID,0,VALID,18.2042,VALID,18,VALID,1.95573,
2004-09-30, 02:51:00,VALID,918.206,VALID,0,VALID,93.7516,VALID,0,VALID,18.2374,VALID,3,VALID,1.16443,
2004-09-30, 02:52:00,VALID,918.186,VALID,0,VALID,93.435,VALID,-0.0169808,VALID,18.2404,VALID,358,VALID,0.675509,
2004-09-30, 02:53:00,VALID,918.173,VALID,0,VALID,92.9098,VALID,0.0169808,VALID,18.2561,VALID,1,VALID,0.801235,
2004-09-30, 02:54:00,VALID,918.168,VALID,0,VALID,92.6351,VALID,-0.0169808,VALID,18.2985,VALID,358,VALID,1.32754,
2004-09-30, 02:55:00,VALID,918.183,VALID,0,VALID,92.3261,VALID,0,VALID,18.347,VALID,318,VALID,0.79859,
2004-09-30, 02:56:00,VALID,918.173,VALID,0,VALID,94.4065,VALID,0,VALID,18.3536,VALID,239,VALID,0.451596,
2004-09-30, 02:57:00,VALID,918.177,VALID,0,VALID,95.3398,VALID,0,VALID,18.2891,VALID,283,VALID,0.775568,
2004-09-30, 02:58:00,VALID,918.165,VALID,0,VALID,95.5649,VALID,0,VALID,18.1726,VALID,307,VALID,0.541788,
2004-09-30, 02:59:00,VALID,918.155,VALID,0,VALID,95.1771,VALID,-0.0169808,VALID,18.1502,VALID,12,VALID,0.781994,
2004-09-30, 03:00:00,VALID,918.14,VALID,0,VALID,95.5738,VALID,0,VALID,18.1334,VALID,13,VALID,0.223837,
2004-09-30, 03:01:00,VALID,918.142,VALID,0,VALID,95.6183,VALID,0,VALID,18.0915,VALID,13,VALID,0.327172,
2004-09-30, 03:02:00,VALID,918.152,VALID,0,VALID,96.3368,VALID,0,VALID,18.0889,VALID,316,VALID,0.364139,
2004-09-30, 03:03:00,VALID,918.146,VALID,0,VALID,96.8238,VALID,0,VALID,18.0433,VALID,263,VALID,0.17832,
2004-09-30, 03:04:00,VALID,918.122,VALID,0,VALID,97.1849,VALID,0,VALID,18.0331,VALID,323,VALID,0.210007,
2004-09-30, 03:05:00,VALID,918.134,VALID,0,VALID,97.2256,VALID,0,VALID,18.0207,VALID,349,VALID,0.135352,
2004-09-30, 03:06:00,VALID,918.158,VALID,0,VALID,97.1124,VALID,0.0339617,VALID,18.0112,VALID,350,VALID,0.0745046,
2004-09-30, 03:07:00,VALID,918.165,VALID,0,VALID,97.1798,VALID,-0.0169808,VALID,18.0082,VALID,350,VALID,0,
2004-09-30, 03:08:00,VALID,918.169,VALID,0,VALID,96.7437,VALID,0,VALID,17.9858,VALID,360,VALID,0.452195,
2004-09-30, 03:09:00,VALID,918.18,VALID,0,VALID,96.3736,VALID,-0.0169808,VALID,17.972,VALID,10,VALID,0.850291,
2004-09-30, 03:10:00,VALID,918.171,VALID,0,VALID,95.1046,VALID,0,VALID,17.9658,VALID,15,VALID,1.39177,
2004-09-30, 03:11:00,VALID,918.161,VALID,0,VALID,94.3543,VALID,0,VALID,18.0433,VALID,13,VALID,1.27958,
2004-09-30, 03:12:00,VALID,918.154,VALID,0,VALID,93.5202,VALID,-0.0169808,VALID,18.105,VALID,9,VALID,1.65253,
2004-09-30, 03:13:00,VALID,918.144,VALID,0,VALID,92.2511,VALID,0,VALID,18.189,VALID,13,VALID,1.68309,
2004-09-30, 03:14:00,VALID,918.148,VALID,0,VALID,91.8722,VALID,0,VALID,18.2697,VALID,13,VALID,1.5258,
2004-09-30, 03:15:00,VALID,918.127,VALID,0,VALID,91.4424,VALID,0,VALID,18.3151,VALID,4,VALID,1.41146,
2004-09-30, 03:16:00,VALID,918.118,VALID,0,VALID,91.3139,VALID,0,VALID,18.3504,VALID,6,VALID,1.08505,
2004-09-30, 03:17:00,VALID,918.116,VALID,0,VALID,91.6674,VALID,0,VALID,18.3437,VALID,6,VALID,1.31734,
2004-09-30, 03:18:00,VALID,918.114,VALID,0,VALID,92.1697,VALID,-0.0169808,VALID,18.3218,VALID,13,VALID,1.27202,
2004-09-30, 03:19:00,VALID,918.102,VALID,0,VALID,92.5092,VALID,-0.0339617,VALID,18.2697,VALID,5,VALID,1.28125,
2004-09-30, 03:20:00,VALID,918.098,VALID,0,VALID,92.4749,VALID,-0.0169808,VALID,18.224,VALID,2,VALID,0.904251,
2004-09-30, 03:21:00,VALID,918.106,VALID,0,VALID,92.0782,VALID,0,VALID,18.2312,VALID,357,VALID,1.11919,
2004-09-30, 03:22:00,VALID,918.121,VALID,0,VALID,91.5657,VALID,0,VALID,18.2501,VALID,358,VALID,1.2342,
2004-09-30, 03:23:00,VALID,918.144,VALID,0,VALID,91.4665,VALID,-0.0169808,VALID,18.3054,VALID,3,VALID,0.904754,
2004-09-30, 03:24:00,VALID,918.154,VALID,0,VALID,91.3165,VALID,0,VALID,18.3052,VALID,4,VALID,0.972656,
2004-09-30, 03:25:00,VALID,918.158,VALID,0,VALID,91.5504,VALID,-0.0169808,VALID,18.3306,VALID,10,VALID,0.833681,
2004-09-30, 03:26:00,VALID,918.149,VALID,0,VALID,91.1321,VALID,0,VALID,18.334,VALID,6,VALID,1.19651,
2004-09-30, 03:27:00,VALID,918.142,VALID,0,VALID,90.6018,VALID,-0.0169808,VALID,18.3569,VALID,9,VALID,1.25316,
2004-09-30, 03:28:00,VALID,918.142,VALID,0,VALID,90.8625,VALID,0,VALID,18.3922,VALID,9,VALID,1.35232,
2004-09-30, 03:29:00,VALID,918.154,VALID,0,VALID,90.4607,VALID,0,VALID,18.3889,VALID,7,VALID,1.16797,
2004-09-30, 03:30:00,VALID,918.148,VALID,0,VALID,91.3025,VALID,0,VALID,18.3954,VALID,355,VALID,0.329985,
2004-09-30, 03:31:00,VALID,918.148,VALID,0,VALID,92.2295,VALID,-0.0169808,VALID,18.3338,VALID,351,VALID,0.115234,
2004-09-30, 03:32:00,VALID,918.122,VALID,0,VALID,93.1921,VALID,0,VALID,18.2695,VALID,347,VALID,0.373728,
2004-09-30, 03:33:00,VALID,918.1,VALID,0,VALID,93.9309,VALID,0.0169808,VALID,18.2277,VALID,6,VALID,0.759713,
2004-09-30, 03:34:00,VALID,918.096,VALID,0,VALID,93.3142,VALID,0,VALID,18.1431,VALID,345,VALID,1.03034,
2004-09-30, 03:35:00,VALID,918.101,VALID,0,VALID,93.2633,VALID,-0.0339617,VALID,18.1212,VALID,332,VALID,0.671494,
2004-09-30, 03:36:00,VALID,918.091,VALID,0,VALID,94.5947,VALID,0,VALID,18.1177,VALID,318,VALID,0.327762,
2004-09-30, 03:37:00,VALID,918.078,VALID,0,VALID,95.5293,VALID,0,VALID,18.1113,VALID,306,VALID,0.467969,